This is the latest recevied weather packets stored in our database for station/object DK7LH-6. If no packets are shown the sender has not sent any weather packets the latest 10 day(s).
| Time | Temp. | Humidity | Pressure | Rain* | Wind** | Luminosity | Snow |
|---|---|---|---|---|---|---|---|
| 1778081429 | 9.44° C | 91% | 1008.8 hPa | 1.02 mm | - | 98 W/m² | - |
| 1778080562 | 9.44° C | 90% | 1008.8 hPa | 1.02 mm | - | 109 W/m² | - |
| 1778079631 | 9.44° C | 90% | 1008.8 hPa | 1.02 mm | - | 118 W/m² | - |
| 1778078763 | 9.44° C | 90% | 1008.6 hPa | 1.27 mm | - | 121 W/m² | - |
| 1778077833 | 9.44° C | 89% | 1008.6 hPa | 1.27 mm | - | 119 W/m² | - |
| 1778076966 | 8.89° C | 89% | 1008.6 hPa | 1.27 mm | - | 106 W/m² | - |
| 1778076036 | 8.89° C | 88% | 1008.6 hPa | 1.27 mm | - | 101 W/m² | - |
| 1778075167 | 8.89° C | 87% | 1008.6 hPa | 0.76 mm | - | 99 W/m² | - |
| 1778074237 | 8.89° C | 86% | 1008.7 hPa | 0.76 mm | - | 101 W/m² | - |
| 1778073370 | 8.89° C | 85% | 1008.5 hPa | 0.76 mm | - | 102 W/m² | - |
| 1778072439 | 8.89° C | 85% | 1008.5 hPa | 0.76 mm | - | 101 W/m² | - |
| 1778071571 | 9.44° C | 85% | 1008.4 hPa | 0.76 mm | - | 107 W/m² | - |
| 1778070672 | 9.44° C | 85% | 1008.3 hPa | 0.76 mm | - | 102 W/m² | - |
| 1778069742 | 9.44° C | 86% | 1008.3 hPa | 0.76 mm | - | 100 W/m² | - |
| 1778068874 | 9.44° C | 84% | 1008.2 hPa | 0.51 mm | - | 103 W/m² | - |
| 1778067944 | 9.44° C | 84% | 1008.1 hPa | 0.51 mm | - | 95 W/m² | - |
| 1778067076 | 9.44° C | 81% | 1008.1 hPa | 0.51 mm | - | 83 W/m² | - |
| 1778066146 | 9.44° C | 79% | 1008.2 hPa | 0.25 mm | - | 85 W/m² | - |
| 1778065217 | 9.44° C | 80% | 1008 hPa | 0.25 mm | - | 103 W/m² | - |
| 1778064348 | 9.44° C | 78% | 1008 hPa | 0.25 mm | - | 112 W/m² | - |
| 1778063418 | 10° C | 79% | 1008 hPa | 0 mm | - | 133 W/m² | - |
| 1778062550 | 10° C | 78% | 1008 hPa | 0 mm | - | 129 W/m² | - |
| 1778061620 | 10° C | 75% | 1008 hPa | 0 mm | - | 134 W/m² | - |
| 1778060752 | 10.56° C | 73% | 1007.8 hPa | 0 mm | - | 128 W/m² | - |
| 1778059822 | 10.56° C | 72% | 1007.9 hPa | 0 mm | - | 138 W/m² | - |
* Rain latest hour (hover to see other rain measurements)
** Current wind speed in m/s (hover to see current wind gust speed)